Home > Weather > Kings County > Past weeks

Flag for Canada Past Weather in Kings County, Nova Scotia, Canada — Yesterday and Last 2 Weeks

Now
60 °F

Cool.


Feels Like: 60 °F
Forecast: 62 / 68 °F
Wind: 5 mph from Southeast

Location: McNabs Island - AUT

Current Time: Jun 29, 2016 at 12:44:39 AM

Latest Report: Jun 29, 2016 at 12:00 AM


Visibility: N/A

Pressure: 30.13 "Hg

Humidity: 98%

Dew Point: 60 °F

Location of Kings CountyLocation

Past Weather in Kings County — Graph

°F

Kings County Temperature Yesterday

Maximum temperature yesterday: 70 °F (at 2:00 PM)
Minimum temperature yesterday: 56 °F (at 1:00 AM)
Average temperature yesterday: 61 °F

High & Low Weather Summary for the Past Weeks

 TemperatureHumidityPressure
High74 °F (Jun 18, 3:00 PM)100% (Jun 23, 2:00 AM)30.28 "Hg (Jun 23, 2:00 AM)
Low46 °F (Jun 17, 5:00 AM)28% (Jun 18, 3:00 PM)29.41 "Hg (Jun 14, 1:00 AM)
Average58 °F75%29.95 "Hg
* Reported Jun 13 11:00 PM — Jun 28 11:00 PM, Kings County, Weather by CustomWeather, © 2016

Note: Actual official high and low records may vary slightly from our data, if they occured in-between our weather recording intervals... More about our weather records

Advertising

Kings County Weather History for the Previous 24 Hours

Scroll right to see more
 ConditionsComfort  
Time TempWeatherWind HumidityBarometerVisibility
11:00 PM
Tue, Jun 28
61 °FCool.5 mph97%30.13 "HgN/A
10:00 PM61 °FCool.5 mph96%30.12 "HgN/A
8:00 PM61 °FCool.8 mph96%30.11 "HgN/A
7:00 PM62 °FCool.6 mph96%30.11 "HgN/A
6:00 PM64 °FMild.12 mph91%30.11 "HgN/A
5:00 PM64 °FMild.7 mph90%30.12 "HgN/A
4:00 PM63 °FMild.10 mph87%30.12 "HgN/A
3:00 PM65 °FMild.12 mph86%30.13 "HgN/A
2:00 PM70 °FMild.15 mph63%30.12 "HgN/A
1:00 PM64 °FMild.16 mph78%30.14 "HgN/A
12:00 PM67 °FMild.13 mph69%30.13 "HgN/A
11:00 AM61 °FCool.14 mph83%30.13 "HgN/A
10:00 AM61 °FCool.10 mph87%30.13 "HgN/A
9:00 AM60 °FCool.9 mph87%30.14 "HgN/A
8:00 AM59 °FCool.7 mph89%30.13 "HgN/A
7:00 AM59 °FCool.5 mph90%30.12 "HgN/A
6:00 AM58 °FCool.6 mph93%30.13 "HgN/A
5:00 AM59 °FCool.9 mph94%30.12 "HgN/A
4:00 AM60 °FCool.8 mph96%30.11 "HgN/A
3:00 AM56 °FCool.9 mph93%30.12 "HgN/A
2:00 AM56 °FCool.6 mph91%30.13 "HgN/A
1:00 AM56 °FCool.5 mph90%30.14 "HgN/A
12:00 AM57 °FCool.6 mph85%30.14 "HgN/A
Weather by CustomWeather, © 2016

See weather overviewHow to use our weather pages